User: anonymous   Login
Location: New Canada
(47.1017°N, 68.5042°W)
Time: 12:18:23
(UTC+00:00)
Language:

PCSat - Orbit

View from above orbital plane
View from above orbital plane
View from above satellite
View from above satellite

Ground track
Ground track

The orbit data is extracted from the following two-line orbital elements,

1 26931U 01043C   24112.39327472  .00000728  00000-0  30654-3 0  9994
2 26931  67.0488 118.2726 0006253 281.9811  78.0590 14.31183467177821
Epoch (UTC): 21 April 2024 09:26:18
Eccentricity: 0.0006253
inclination: 67.0488°
perigee height: 783 km
apogee height: 792 km
right ascension of ascending node: 118.2726°
argument of perigee: 281.9811°
revolutions per day: 14.31183467
mean anomaly at epoch: 78.0590°
orbit number at epoch: 17782

The dashed part of the orbit path shows where the satellite is in the earth's shadow,  

DLR